Change the Weather History Date:

Wednesday, May 1, 2013

  Actual Average Record
Temperature  
Mean Temperature 26 °F -  
Max Temperature 32 °F 49 °F 66 °F (2014)
Min Temperature 19 °F 27 °F 11 °F (1962)
Degree Days  
Heating Degree Days 40    
Moisture  
Dew Point 10 °F    
Average Humidity 54    
Maximum Humidity 69    
Minimum Humidity 40    
Precipitation  
Precipitation 0.00 in - - ()
Snow  
Snow 0.00 in - - ()
Snow Depth 9.00 in    
Sea Level Pressure  
Sea Level Pressure 29.85 in    
Wind  
Wind Speed 5 mph (East)    
Max Wind Speed 14 mph    
Max Gust Speed -    
Visibility 10 miles    
Events      
Averages and records for this station are not official NWS values.
T = Trace of Precipitation, MM = Missing Value Source: NWS Daily Summary

Daily Weather History Graph

Daily Weather History Graph

Search for Another Location

Airport or City:

Trip Planner

Search our weather history database for the weather conditions in past years. The results will help you decide how hot, cold, wet, or windy it might be!

Date:

Astronomy

May. 01, 2013 Rise Set
Actual Time 5:30 AM AKDT 10:42 PM AKDT
Civil Twilight 4:14 AM AKDT 12:00 AM AKDT
Nautical Twilight Sun does not rise Sun does not rise
Astronomical Twilight Sun does not rise Sun does not rise
Moon 3:57 AM AKDT (5/1) 11:27 AM AKDT (5/1)
Length of Visible Light 19h 46m
Length of Day
17h 11m
Waning Gibbous, 57% of the Moon is Illuminated
May 1
Waning Gibbous
May 2
Last Quarter
May 9
New
May 17
First Quarter
May 24
Full

Hourly Weather History & Observations

Time (AKDT) Temp. Windchill Dew Point Humidity Pressure Visibility Wind Dir Wind Speed Gust Speed Precip Events Conditions
12:52 AM 24.1 °F 19.7 °F 15.1 °F 69% 29.94 in 10.0 mi North 3.5 mph - N/A   Overcast
1:52 AM 23.0 °F 18.4 °F 12.9 °F 65% 29.94 in 10.0 mi Variable 3.5 mph - N/A   Overcast
2:52 AM 23.0 °F - 12.0 °F 63% 29.93 in 10.0 mi Calm Calm - N/A   Overcast
3:52 AM 24.1 °F 18.2 °F 12.0 °F 60% 29.92 in 10.0 mi East 4.6 mph - N/A   Overcast
4:52 AM 23.0 °F - 10.9 °F 60% 29.91 in 10.0 mi Calm Calm - N/A   Overcast
5:52 AM 21.0 °F - 9.0 °F 60% 29.91 in 10.0 mi Calm Calm - N/A   Mostly Cloudy
6:52 AM 19.9 °F - 9.0 °F 62% 29.89 in 10.0 mi Calm Calm - N/A   Mostly Cloudy
7:52 AM 19.0 °F 10.0 °F 9.0 °F 65% 29.89 in 10.0 mi SE 6.9 mph - N/A   Mostly Cloudy
8:52 AM 19.9 °F 12.1 °F 7.0 °F 57% 29.88 in 10.0 mi ESE 5.8 mph - N/A   Scattered Clouds
9:52 AM 21.0 °F 11.4 °F 8.1 °F 57% 29.87 in 10.0 mi ESE 8.1 mph - N/A   Mostly Cloudy
10:52 AM 23.0 °F 13.1 °F 8.1 °F 53% 29.86 in 10.0 mi ESE 9.2 mph - N/A   Scattered Clouds
11:52 AM 25.0 °F 16.3 °F 10.0 °F 53% 29.86 in 10.0 mi SE 8.1 mph - N/A   Scattered Clouds
12:52 PM 26.1 °F 16.2 °F 10.9 °F 53% 29.84 in 10.0 mi ESE 10.4 mph - N/A   Scattered Clouds
1:52 PM 28.0 °F 17.5 °F 12.9 °F 53% 29.83 in 10.0 mi SE 12.7 mph - N/A   Scattered Clouds
2:52 PM 28.9 °F 21.1 °F 12.9 °F 51% 29.82 in 10.0 mi ESE 8.1 mph - N/A   Scattered Clouds
3:52 PM 30.0 °F 23.2 °F 12.9 °F 49% 29.80 in 10.0 mi ESE 6.9 mph - N/A   Scattered Clouds
4:52 PM 32.0 °F 23.6 °F 10.0 °F 40% 29.79 in 10.0 mi North 10.4 mph - N/A   Partly Cloudy
5:52 PM 30.0 °F 23.2 °F 12.0 °F 47% 29.79 in 10.0 mi SE 6.9 mph - N/A   Partly Cloudy
6:52 PM 30.9 °F 20.7 °F 9.0 °F 40% 29.78 in 10.0 mi NNE 13.8 mph - N/A   Partly Cloudy
7:52 PM 30.0 °F 20.0 °F 9.0 °F 41% 29.78 in 10.0 mi North 12.7 mph - N/A   Clear
8:52 PM 28.0 °F 20.8 °F 8.1 °F 43% 29.79 in 10.0 mi NNE 6.9 mph - N/A   Clear
9:52 PM 26.1 °F 21.9 °F 8.1 °F 47% 29.81 in 10.0 mi NE 3.5 mph - N/A   Clear
10:52 PM 23.0 °F 17.0 °F 6.1 °F 48% 29.82 in 10.0 mi NNE 4.6 mph - N/A   Clear
11:52 PM 21.0 °F - 6.1 °F 53% 29.83 in 10.0 mi Calm Calm - N/A   Clear